When you browse on this site, cookies collect data to enhance your experience and personalize the content and advertising you see.
Visit our Privacy Policy to learn more. By continuing to use the site, you agree to this use of cookies and data.
  • en Suisse
  • Liste des pays
  • À 7 jours
  • Température de l'eau
  • Carte météo
  • Widgets météo
  • user-avatar
    Se connecter

    Météo par heure à Xinzhan

    Ce jour, 31 Mai, Dimanche

    Heure Température Précipitation Vent Pression Humidité
    00:00 +25°C° 0.7 mm 1 m/s 709 mmHg 89%
    01:00 +24°C° 0.7 mm 1 m/s 709 mmHg 91%
    02:00 +24°C° 0.3 mm 1 m/s 709 mmHg 92%
    03:00 +24°C° 0.3 mm 1 m/s 709 mmHg 92%
    04:00 +24°C° 0.3 mm 1 m/s 709 mmHg 93%
    05:00 +24°C° 2.3 mm 1 m/s 709 mmHg 94%
    06:00 +24°C° 2.3 mm 1 m/s 709 mmHg 95%
    07:00 +24°C° 2.3 mm 1 m/s 710 mmHg 96%
    08:00 +25°C° 0.9 mm 1 m/s 710 mmHg 92%
    09:00 +27°C° 0.9 mm 1 m/s 711 mmHg 87%
    10:00 +28°C° 0.9 mm 1 m/s 711 mmHg 83%
    11:00 +28°C° 2.5 mm 1 m/s 710 mmHg 83%
    12:00 +28°C° 2.5 mm 1 m/s 710 mmHg 83%
    13:00 +29°C° 2.5 mm 1 m/s 709 mmHg 84%
    14:00 +28°C° 2.3 mm 1 m/s 709 mmHg 84%
    15:00 +28°C° 2.3 mm 1 m/s 709 mmHg 85%
    16:00 +28°C° 2.3 mm 1 m/s 708 mmHg 86%
    17:00 +27°C° 0.7 mm 1 m/s 708 mmHg 89%
    18:00 +26°C° 0.7 mm 1 m/s 708 mmHg 92%
    19:00 +25°C° 0.7 mm 1 m/s 708 mmHg 95%
    20:00 +25°C° 0 mm 1 m/s 709 mmHg 95%
    21:00 +24°C° 0 mm 1 m/s 710 mmHg 95%
    22:00 +24°C° 0 mm 1 m/s 710 mmHg 96%
    23:00 +24°C° 0 mm 1 m/s 710 mmHg 96%

    Demain, 1 Juin, Lundi

    Heure Température Précipitation Vent Pression Humidité
    00:00 +24°C° 0 mm 1 m/s 710 mmHg 96%
    01:00 +24°C° 0 mm 1 m/s 710 mmHg 96%
    02:00 +23°C° 0 mm 1 m/s 710 mmHg 96%
    03:00 +23°C° 0 mm 1 m/s 710 mmHg 96%
    04:00 +23°C° 0 mm 1 m/s 709 mmHg 97%
    05:00 +23°C° 0 mm 1 m/s 710 mmHg 95%
    06:00 +24°C° 0 mm 1 m/s 710 mmHg 93%
    07:00 +25°C° 0 mm 1 m/s 710 mmHg 91%
    08:00 +26°C° 0.1 mm 1 m/s 710 mmHg 88%
    09:00 +27°C° 0.1 mm 1 m/s 710 mmHg 85%
    10:00 +28°C° 0.1 mm 2 m/s 710 mmHg 81%
    11:00 +28°C° 0.7 mm 2 m/s 710 mmHg 79%
    12:00 +29°C° 0.7 mm 2 m/s 709 mmHg 77%
    13:00 +30°C° 0.7 mm 2 m/s 708 mmHg 75%
    14:00 +30°C° 0.5 mm 2 m/s 708 mmHg 75%
    15:00 +30°C° 0.5 mm 1 m/s 707 mmHg 75%
    16:00 +30°C° 0.5 mm 1 m/s 707 mmHg 76%
    17:00 +29°C° 0.1 mm 1 m/s 707 mmHg 80%
    18:00 +28°C° 0.1 mm 1 m/s 707 mmHg 85%
    19:00 +27°C° 0.1 mm 1 m/s 707 mmHg 89%
    20:00 +26°C° 1 mm 1 m/s 707 mmHg 91%
    21:00 +26°C° 1 mm 1 m/s 707 mmHg 93%
    22:00 +25°C° 1 mm 1 m/s 708 mmHg 94%
    23:00 +25°C° 1.2 mm 1 m/s 707 mmHg 95%

    Après-demain, 2 Juin, Mardi

    Heure Température Précipitation Vent Pression Humidité
    00:00 +25°C° 1.2 mm 1 m/s 707 mmHg 96%
    01:00 +25°C° 1.2 mm 1 m/s 707 mmHg 97%
    02:00 +25°C° 0.9 mm 1 m/s 707 mmHg 97%
    03:00 +25°C° 0.9 mm 1 m/s 706 mmHg 97%
    04:00 +25°C° 0.9 mm 1 m/s 706 mmHg 97%
    05:00 +25°C° 0.5 mm 1 m/s 707 mmHg 96%
    06:00 +26°C° 0.5 mm 1 m/s 707 mmHg 94%
    07:00 +26°C° 0.5 mm 1 m/s 707 mmHg 93%
    08:00 +27°C° 0.5 mm 1 m/s 707 mmHg 90%
    09:00 +28°C° 0.5 mm 1 m/s 708 mmHg 87%
    10:00 +29°C° 0.5 mm 1 m/s 708 mmHg 84%
    11:00 +29°C° 2.3 mm 1 m/s 708 mmHg 85%
    12:00 +29°C° 2.3 mm 1 m/s 707 mmHg 86%
    13:00 +29°C° 2.3 mm 2 m/s 707 mmHg 86%
    14:00 +28°C° 1.6 mm 2 m/s 707 mmHg 87%
    15:00 +28°C° 1.6 mm 2 m/s 707 mmHg 88%
    16:00 +27°C° 1.6 mm 2 m/s 706 mmHg 89%
    17:00 +26°C° 0.4 mm 2 m/s 707 mmHg 92%
    18:00 +25°C° 0.4 mm 2 m/s 707 mmHg 94%
    19:00 +24°C° 0.4 mm 1 m/s 707 mmHg 96%
    20:00 +24°C° 0 mm 1 m/s 708 mmHg 96%
    21:00 +24°C° 0 mm 1 m/s 708 mmHg 96%
    22:00 +24°C° 0 mm 1 m/s 709 mmHg 97%
    23:00 +23°C° 0.1 mm 1 m/s 709 mmHg 97%

    3 Juin, Mercredi

    Heure Température Précipitation Vent Pression Humidité
    00:00 +23°C° 0.1 mm 1 m/s 709 mmHg 97%
    01:00 +23°C° 0.1 mm 1 m/s 708 mmHg 97%
    02:00 +23°C° 0.3 mm 1 m/s 708 mmHg 98%
    03:00 +23°C° 0.3 mm 1 m/s 708 mmHg 98%
    04:00 +22°C° 0.3 mm 1 m/s 708 mmHg 98%
    05:00 +22°C° 0.1 mm 1 m/s 708 mmHg 97%
    06:00 +22°C° 0.1 mm 1 m/s 708 mmHg 97%
    07:00 +22°C° 0.1 mm 1 m/s 708 mmHg 97%
    08:00 +22°C° 0.1 mm 1 m/s 709 mmHg 95%
    09:00 +22°C° 0.1 mm 1 m/s 709 mmHg 94%
    10:00 +23°C° 0.1 mm 1 m/s 709 mmHg 93%
    11:00 +22°C° 0.5 mm 1 m/s 709 mmHg 93%
    12:00 +22°C° 0.5 mm 1 m/s 709 mmHg 94%
    13:00 +22°C° 0.5 mm 1 m/s 708 mmHg 94%
    14:00 +22°C° 0.5 mm 1 m/s 708 mmHg 95%
    15:00 +22°C° 0.5 mm 1 m/s 708 mmHg 95%
    16:00 +22°C° 0.5 mm 1 m/s 707 mmHg 95%
    17:00 +22°C° 0 mm 1 m/s 707 mmHg 96%
    18:00 +19°C° 0 mm 0 m/s 707 mmHg 96%
    19:00 +19°C° 0 mm 0 m/s 708 mmHg 96%
    20:00 +19°C° 0 mm 0 m/s 708 mmHg 96%
    21:00 +19°C° 0 mm 0 m/s 708 mmHg 96%
    22:00 +18°C° 0 mm 0 m/s 708 mmHg 96%
    23:00 +18°C° 0 mm 0 m/s 708 mmHg 96%

    4 Juin, Jeudi

    Heure Température Précipitation Vent Pression Humidité
    00:00 +18°C° 0 mm 0 m/s 708 mmHg 96%
    01:00 +18°C° 0 mm 0 m/s 707 mmHg 96%
    02:00 +18°C° 0 mm 0 m/s 707 mmHg 96%
    03:00 +18°C° 0 mm 0 m/s 707 mmHg 96%
    04:00 +18°C° 0 mm 0 m/s 706 mmHg 96%
    05:00 +19°C° 0 mm 0 m/s 707 mmHg 93%
    06:00 +20°C° 0 mm 0 m/s 707 mmHg 90%
    07:00 +21°C° 0 mm 0 m/s 707 mmHg 88%
    08:00 +25°C° 0 mm 1 m/s 708 mmHg 81%
    09:00 +27°C° 0 mm 1 m/s 708 mmHg 75%
    10:00 +29°C° 0 mm 1 m/s 708 mmHg 68%
    11:00 +29°C° 0 mm 1 m/s 707 mmHg 66%
    12:00 +30°C° 0 mm 2 m/s 707 mmHg 63%
    13:00 +31°C° 0 mm 2 m/s 706 mmHg 61%
    14:00 +30°C° 0 mm 2 m/s 706 mmHg 62%
    15:00 +30°C° 0 mm 2 m/s 705 mmHg 64%
    16:00 +30°C° 0 mm 2 m/s 705 mmHg 66%
    17:00 +28°C° 0 mm 2 m/s 705 mmHg 73%
    18:00 +27°C° 0 mm 1 m/s 705 mmHg 80%
    19:00 +25°C° 0 mm 1 m/s 705 mmHg 88%
    20:00 +24°C° 0 mm 1 m/s 706 mmHg 89%
    21:00 +24°C° 0 mm 1 m/s 706 mmHg 91%
    22:00 +21°C° 0 mm 0 m/s 707 mmHg 92%
    23:00 +23°C° 0 mm 1 m/s 706 mmHg 93%

    5 Juin, Vendredi

    Heure Température Précipitation Vent Pression Humidité
    00:00 +23°C° 0 mm 1 m/s 706 mmHg 93%
    01:00 +23°C° 0 mm 1 m/s 706 mmHg 93%
    02:00 +21°C° 0 mm 0 m/s 706 mmHg 93%
    03:00 +20°C° 0 mm 0 m/s 706 mmHg 93%
    04:00 +20°C° 0 mm 0 m/s 706 mmHg 93%
    05:00 +22°C° 0 mm 0 m/s 706 mmHg 89%
    06:00 +23°C° 0 mm 0 m/s 707 mmHg 84%
    07:00 +24°C° 0 mm 0 m/s 707 mmHg 79%
    08:00 +26°C° 0 mm 0 m/s 707 mmHg 71%
    09:00 +28°C° 0 mm 0 m/s 708 mmHg 63%
    10:00 +32°C° 0 mm 1 m/s 708 mmHg 55%
    11:00 +32°C° 0 mm 1 m/s 707 mmHg 53%
    12:00 +33°C° 0 mm 1 m/s 707 mmHg 51%
    13:00 +35°C° 0 mm 2 m/s 707 mmHg 48%
    14:00 +34°C° 0 mm 2 m/s 706 mmHg 50%
    15:00 +34°C° 0 mm 2 m/s 706 mmHg 53%
    16:00 +34°C° 0 mm 2 m/s 705 mmHg 55%
    17:00 +31°C° 0 mm 1 m/s 705 mmHg 62%
    18:00 +29°C° 0 mm 1 m/s 705 mmHg 70%
    19:00 +25°C° 0 mm 0 m/s 705 mmHg 78%
    20:00 +25°C° 0 mm 0 m/s 706 mmHg 80%
    21:00 +24°C° 0 mm 0 m/s 706 mmHg 81%
    22:00 +24°C° 0 mm 0 m/s 707 mmHg 83%
    23:00 +23°C° 0 mm 0 m/s 707 mmHg 83%
    Voir plus